Regional Weather Roundup
Issued by NWS

Home | Current Version | Previous Version | Graphics & Text | Print | Product List | Glossary On
Versions: 1 2 3 4 5 6 7 8 9 10 11 12 13 14 15 16 17 18 19 20 21 22 23 24 25 26 27 28 29 30 31 32 33 34 35 36 37 38 39 40 41 42 43 44 45 46 47 48 49 50
475
ASUS45 KTFX 251410
RWRMT
MONTANA REGIONAL WEATHER ROUNDUP
NATIONAL WEATHER SERVICE GREAT FALLS MT
800 AM MDT SUN JUN 25 2017

NOTE: "FAIR" INDICATES FEW OR NO CLOUDS BELOW 12000 FEET WITH NO
SIGNIFICANT WEATHER AND/OR OBSTRUCTIONS TO VISIBILITY.

MTZ001>007-043-251500-
WEST OF THE DIVIDE

CITY           SKY/WX    TMP DP  RH WIND       PRES   REMARKS
KALISPELL      SUNNY     61  47  59 NE14G20   30.24S
MISSOULA       SUNNY     55  43  63 S5        30.28S
BUTTE          SUNNY     53  38  56 CALM      30.38S
MULLAN PASS    SUNNY     58  33  39 SE9G16    30.33S
ANACONDA         N/A     55  37  50 S5        30.35S
DEER LODGE       N/A     54  43  66 CALM      30.37S
EUREKA           N/A     57  45  62 MISG      30.25S
HAMILTON         N/A     57  43  58 S6        30.29R
$$

MTZ008-052>055-251500-
SOUTHWEST MONTANA

CITY           SKY/WX    TMP DP  RH WIND       PRES   REMARKS
BOZEMAN        SUNNY     55  40  56 W3        30.36S
DILLON         SUNNY     51  41  68 SW5       30.36R
W YELLOWSTONE  SUNNY     46  36  66 CALM      30.44R
ENNIS          SUNNY     52  39  62 CALM      30.43R
THREE FORKS      N/A     54  43  66 CALM      30.31R
$$

MTZ009-010-012-014-046-048-049-054-251500-
EAST SLOPES AND CENTRAL MONTANA

CITY           SKY/WX    TMP DP  RH WIND       PRES   REMARKS
CUT BANK       SUNNY     54  45  71 CALM      30.31S
GREAT FALLS    SUNNY     57  43  59 SW5       30.32S
MALMSTROM AFB  SUNNY     55  44  66 S3        30.32S
HELENA         SUNNY     57  42  57 CALM      30.33S
CHOTEAU          N/A     57  43  58 S5        30.33S
$$

MTZ011-013-016-021-045-047-050-051-251500-
NORTH CENTRAL MONTANA

CITY           SKY/WX    TMP DP  RH WIND       PRES   REMARKS
HAVRE          SUNNY     55  42  61 CALM      30.30S
LEWISTOWN      SUNNY     55  43  63 SE3       30.34S
N BAR RANCH      N/A     57  37  47 CALM      30.38R
CHINOOK          N/A     55  43  62 CALM      30.31S
FORT BENTON      N/A     57  45  62 MISG      30.33S
$$

MTZ017>020-022>027-061-062-251500-
NORTHEAST MONTANA

CITY           SKY/WX    TMP DP  RH WIND       PRES   REMARKS
GLASGOW        SUNNY     57  37  47 CALM      30.27S
JORDAN           N/A     60  32  34 NW5       30.28S
SIDNEY         CLOUDY    54  38  54 S3        30.28S
WOLF POINT     SUNNY     57  36  45 E5        30.28R
MALTA          SUNNY     55  41  58 W7        30.29S
PLENTYWOOD       N/A     55  48  76 CALM      30.28R
POPLAR           N/A     54  39  58 N3        30.28R
$$

MTZ028>42-056>058-251500-
SOUTHCENTRAL AND SOUTHEAST MONTANA

CITY           SKY/WX    TMP DP  RH WIND       PRES   REMARKS
BAKER          SUNNY     65  31  28 SW15      30.30S
BILLINGS       SUNNY     56  40  55 SW6       30.33S
LIVINGSTON     SUNNY     50  40  68 NW5       30.38R
MILES CITY     SUNNY     58  33  39 VRB5      30.29R
BIG TIMBER     SUNNY     55  39  54 W9        30.39S
FORSYTH          N/A     57  36  44 CALM      30.30R
ROUNDUP          N/A     56  38  50 SW5       30.22R
$$

REGIONAL REPORTS...DAKOTAS

CITY           SKY/WX    TMP DP  RH WIND       PRES   REMARKS
WILLISTON      LGT RAIN  53  49  86 W8        30.30R
MINOT          CLOUDY    55  44  66 SW5       30.25R
DICKINSON      MOSUNNY   58  33  39 W15       30.25R
BEACH          PTSUNNY   63  34  34 SW13      30.30F
CROSBY         PTSUNNY   55  52  88 NW8       30.28R
TIOGA          CLOUDY    52  54 100 CALM      30.27S
WATFORD CITY     N/A     54  45  71 SE7       30.27S
BISMARCK       CLOUDY    50  41  71 CALM      30.31R
GRAND FORKS    MOSUNNY   57  47  69 N9        30.23S
FARGO          SUNNY     58  43  57 N13       30.24S
BUFFALO SD       N/A     59  36  42 SW6       30.26S
RAPID CITY     MOSUNNY   60  35  39 S8        30.35S
$$

REGIONAL REPORTS...WYOMING/IDAHO/WASHINGTON

CITY           SKY/WX    TMP DP  RH WIND       PRES   REMARKS
GILLETTE       CLOUDY    57  38  48 S7        30.35S
SHERIDAN       CLOUDY    55  43  63 CALM      30.34R
BUFFALO WY     SUNNY     59  39  47 CALM      30.37R
CODY           SUNNY     58  37  45 CALM      30.40R
YELLOWSTONE LA   N/A     45  36  70 E3        30.49S
IDAHO FALLS    SUNNY     57  46  66 N7        30.28S
SALMON         SUNNY     52  41  66 CALM      30.29S
BOISE          SUNNY     67  41  38 E13       30.13R
SPOKANE        SUNNY     65  45  48 NE13      30.13S
$$

REGIONAL REPORTS...ALBERTA

CITY           SKY/WX    TMP DP  RH WIND       PRES   REMARKS
EDMONTON       SUNNY     59  52  77 SE3       30.22S
CALGARY        MOSUNNY   57  45  62 SW5       30.25F
MEDICINE HAT   MOSUNNY   59  48  67 SW6       30.27S
WATERTON GATE    N/A     54  46  76 SW3         N/A
CARDSTON         N/A     54  46  76 E1          N/A
$$

REGIONAL REPORTS...SASKATCHEWAN

CITY           SKY/WX    TMP DP  RH WIND       PRES   REMARKS
SWIFT CURRENT  SUNNY     54  48  82 NW8       30.28S
REGINA         MOSUNNY   55  45  67 E8        30.28R
SASKATOON      MOSUNNY   57  48  72 SE3       30.30R
CYPRESS HILLS    N/A     57  41  54 NW5         N/A
VAL MARIE        N/A     57  43  58 NE2         N/A
ROCKGLEN         N/A     59  41  51 N3          N/A
ASSINIBOIA       N/A     57  50  77 SE5         N/A
$$




USA.gov is the U.S. government's official web portal to all federal, state and local government web resources and services.